Airfield :
LOGIN :

Register | Disclaimer

   EN    FR    IT 

 










Legend :    VFR   Marginal VFR   IFR   Intensive IFR   Very Intensive IFR
Visi :
Ceiling :
>= 8 km
>= 3000ft
5 to 8 km
1000 to 3000 ft
1500m to 5 km
500 to 1000 ft
800 to 1500m
200 to 500 ft
< 800m
< 200 ft
Symbols :   Thunderstorms  Fog  Heavy snow  Heavy precipitations  Wind > 20 kt
SIGMETs :     Misc.  Thunderstorms  Icing  Turbulence  Mountain Waves  Volcanic Ashes







- Airport Elevation : 100 ft
- IATA code : DCI


LIED - Decimomannu Air Base

CURRENT METAR :
  • 202155Z 15011KT 9999 SCT025 25/24 Q1011 RMK SCT VIS MIN 9999 WIND THR35 16013KT WIND THR17 15011KT BLU

EXPIRED METARs :
  • 202055Z 16011KT 9999 FEW030 25/24 Q1011 RMK FEW VIS MIN 9999 WIND THR35 17013KT WIND THR17 15010KT BLU
  • 201955Z 16013KT CAVOK 25/24 Q1010 RMK SKC VIS MIN 9999 WIND THR35 16013KT WIND THR17 15009KT BLU

TAF TAF LIED
Valid from the 20 at 18:00 until the 21 at 03:00 UTC


201700Z 2018/2103 15008KT CAVOK
No reported NOTAMs for that airfield.



MET'MAP, your aeronautical weather chart ! - Copyright ORBIFLY December 2007 - Disclaimer

ORBIFLY MET'MAP TEAM :

Programming & Development : Alexandra Zaïnal
Concept & Development : Baudouin d'Aumeries
Co-Development & Prog : Marc-Olivier Méhu
Technical & hardware support : Manuel Goepfert

Contact : metmap@orbifly.com




SOURCES & CREDITS :

   NOAA